Regional Weather Roundup
Issued by NWS

Home | Current Version | Previous Version | Text Only | Print | Product List | Glossary Off
Versions: 1 2 3 4 5 6 7 8 9 10 11 12 13 14 15 16 17 18 19 20 21 22 23 24 25 26 27 28 29 30 31 32 33 34 35 36 37 38 39 40 41 42 43 44 45 46 47 48 49 50

000
ASUS43 KBIS 190559
RWRND

NORTH DAKOTA REGIONAL WEATHER ROUNDUP
NATIONAL WEATHER SERVICE BISMARCK ND
100 AM CDT FRI SEP 19 2014

NOTE: "FAIR" INDICATES FEW OR NO CLOUDS BELOW 12,000 FEET WITH NO
SIGNIFICANT WEATHER AND/OR OBSTRUCTIONS TO VISIBILITY.


NDZ001>003-009>011-017-190700-
NORTHWEST NORTH DAKOTA

CITY           SKY/WX    TMP DP  RH WIND       PRES   REMARKS
WILLISTON      CLOUDY    67  53  61 SW5       29.61S
6HR MIN TEMP:  60; 6HR MAX TEMP:  78;

MINOT          CLOUDY    72  61  68 S13       29.57R
$$

NDZ018>021-031>035-040>046-190700-
SOUTHWEST NORTH DAKOTA

CITY           SKY/WX    TMP DP  RH WIND       PRES   REMARKS
BISMARCK       MOCLDY    69  61  75 S7        29.67S
6HR MIN TEMP:  67; 6HR MAX TEMP:  76;

DICKINSON      CLOUDY    69  55  60 W17G24    29.68F
GARRISON         N/A     68  65  90 SW9       29.62S
6HR MIN TEMP:  66; 6HR MAX TEMP:  74;

HETTINGER ARPT CLOUDY    67  57  70 W16       29.74F
$$

NDZ004>008-012>016-024-026-027-054-190700-
NORTHEAST NORTH DAKOTA

CITY           SKY/WX    TMP DP  RH WIND       PRES   REMARKS
GRAND FORKS    CLOUDY    67  57  70 S21G30    29.66S
DEVILS LAKE    CLOUDY    70  57  64 S22G30    29.60S
$$

NDZ022-023-025-028>030-036>039-047>053-190700-
SOUTHEAST NORTH DAKOTA

CITY           SKY/WX    TMP DP  RH WIND       PRES   REMARKS
FARGO          CLOUDY    66  55  67 S15G24    29.76R
6HR MIN TEMP:  66; 6HR MAX TEMP:  75;

$$



USA.gov is the U.S. government's official web portal to all federal, state and local government web resources and services.